QPF
0.02 0.03 0.03 0.04 0.04 0.04 0.03 0.03 0.04 0.07 0.06 0.05 0.06 0.08 0.08 0.07 0.05 0.04 0.04 0.05 0.04 0.04 0.04 0.04 0.04 0.04 0.04 0.04 0.03 0.03 0.02 0.02 0.01 0.01 0.01 0.00 0.00 0.01 0.01 0.02 0.02 0.02 0.02
0.01 0.01 0.02 0.03 0.03 0.02 0.02 0.02 0.02 0.03 0.03 0.02 0.03 0.04 0.05 0.06 0.06 0.06 0.06 0.06 0.05 0.05 0.06 0.06 0.05 0.05 0.04 0.04 0.04 0.03 0.03 0.02 0.02 0.01 0.01 0.01 0.01 0.01 0.01 0.01 0.02 0.02 0.02
0.01 0.01 0.01 0.02 0.02 0.02 0.03 0.04 0.03 0.03 0.03 0.03 0.03 0.05 0.06 0.06 0.06 0.05 0.06 0.06 0.06 0.05 0.07 0.07 0.07 0.07 0.05 0.05 0.05 0.05 0.05 0.04 0.03 0.03 0.03 0.03 0.03 0.02 0.02 0.02 0.02 0.02 0.02
0.01 0.01 0.01 0.02 0.02 0.02 0.03 0.03 0.03 0.03 0.04 0.05 0.06 0.06 0.07 0.08 0.07 0.06 0.07 0.08 0.08 0.08 0.08 0.08 0.09 0.09 0.07 0.07 0.08 0.08 0.08 0.08 0.08 0.06 0.06 0.06 0.05 0.04 0.03 0.03 0.02 0.02 0.02
0.00 0.01 0.01 0.02 0.02 0.02 0.02 0.02 0.02 0.02 0.03 0.04 0.06 0.08 0.09 0.09 0.10 0.10 0.10 0.11 0.10 0.09 0.08 0.08 0.08 0.09 0.09 0.09 0.09 0.09 0.09 0.08 0.07 0.07 0.05 0.04 0.04 0.04 0.03 0.03 0.04 0.04 0.04
0.00 0.00 0.01 0.01 0.02 0.03 0.02 0.03 0.02 0.02 0.03 0.04 0.06 0.09 0.12 0.15 0.19 0.20 0.18 0.16 0.15 0.12 0.10 0.09 0.09 0.09 0.09 0.09 0.08 0.07 0.06 0.06 0.06 0.06 0.05 0.05 0.05 0.05 0.05 0.05 0.06 0.06 0.05
0.00 0.01 0.01 0.01 0.01 0.02 0.03 0.03 0.03 0.04 0.04 0.05 0.06 0.07 0.09 0.13 0.17 0.16 0.14 0.12 0.11 0.10 0.09 0.08 0.08 0.08 0.10 0.09 0.09 0.09 0.07 0.08 0.08 0.07 0.07 0.06 0.06 0.06 0.06 0.06 0.07 0.06 0.06
0.01 0.01 0.01 0.02 0.02 0.02 0.03 0.04 0.05 0.04 0.04 0.04 0.04 0.05 0.05 0.07 0.11 0.12 0.12 0.10 0.09 0.09 0.07 0.06 0.06 0.06 0.06 0.07 0.08 0.09 0.09 0.09 0.10 0.09 0.07 0.07 0.06 0.06 0.06 0.06 0.06 0.06 0.06
0.03 0.02 0.02 0.03 0.04 0.04 0.05 0.06 0.07 0.08 0.07 0.05 0.06 0.07 0.09 0.10 0.11 0.09 0.09 0.07 0.07 0.06 0.05 0.06 0.06 0.05 0.07 0.09 0.11 0.13 0.13 0.12 0.12 0.12 0.10 0.09 0.09 0.07 0.06 0.05 0.05 0.05 0.06
0.05 0.04 0.04 0.05 0.04 0.04 0.05 0.06 0.07 0.09 0.09 0.09 0.08 0.08 0.08 0.08 0.11 0.10 0.09 0.08 0.08 0.07 0.06 0.06 0.07 0.08 0.11 0.12 0.13 0.14 0.13 0.12 0.12 0.11 0.10 0.10 0.09 0.08 0.08 0.06 0.06 0.06 0.06
0.07 0.05 0.04 0.05 0.05 0.05 0.04 0.04 0.05 0.06 0.06 0.07 0.07 0.07 0.07 0.09 0.11 0.10 0.09 0.08 0.08 0.07 0.06 0.06 0.06 0.09 0.11 0.11 0.10 0.10 0.11 0.10 0.09 0.10 0.10 0.10 0.09 0.08 0.07 0.06 0.06 0.05 0.05
0.08 0.07 0.05 0.04 0.06 0.05 0.05 0.04 0.04 0.06 0.07 0.06 0.07 0.07 0.08 0.09 0.09 0.09 0.09 0.08 0.08 0.07 0.07 0.06 0.06 0.06 0.06 0.08 0.09 0.10 0.11 0.11 0.11 0.12 0.11 0.10 0.08 0.07 0.07 0.06 0.06 0.05 0.03
0.06 0.06 0.06 0.05 0.04 0.04 0.06 0.07 0.07 0.07 0.06 0.05 0.06 0.07 0.09 0.10 0.10 0.10 0.11 0.12 0.12 0.10 0.09 0.08 0.07 0.05 0.05 0.05 0.07 0.08 0.09 0.10 0.11 0.11 0.10 0.09 0.07 0.06 0.06 0.04 0.04 0.03 0.03
0.06 0.06 0.07 0.06 0.05 0.04 0.05 0.06 0.08 0.09 0.08 0.06 0.05 0.05 0.06 0.07 0.08 0.09 0.10 0.11 0.11 0.08 0.07 0.07 0.06 0.05 0.04 0.04 0.05 0.05 0.06 0.07 0.07 0.08 0.07 0.06 0.05 0.03 0.02 0.02 0.01 0.02 0.02
0.05 0.06 0.05 0.05 0.04 0.03 0.04 0.05 0.05 0.05 0.06 0.05 0.05 0.06 0.07 0.07 0.07 0.06 0.06 0.06 0.06 0.06 0.05 0.05 0.05 0.05 0.05 0.04 0.04 0.05 0.06 0.06 0.06 0.05 0.04 0.03 0.03 0.02 0.02 0.02 0.02 0.02 0.02
0.04 0.05 0.04 0.04 0.03 0.04 0.04 0.05 0.05 0.05 0.05 0.04 0.05 0.07 0.09 0.09 0.08 0.06 0.06 0.06 0.06 0.05 0.03 0.03 0.04 0.04 0.04 0.04 0.04 0.04 0.04 0.03 0.03 0.03 0.03 0.02 0.02 0.02 0.02 0.02 0.02 0.02 0.02
0.02 0.02 0.03 0.03 0.03 0.02 0.02 0.03 0.04 0.04 0.04 0.04 0.04 0.04 0.05 0.05 0.05 0.04 0.04 0.03 0.02 0.02 0.01 0.01 0.02 0.02 0.02 0.02 0.02 0.02 0.02 0.02 0.01 0.01 0.01 0.01 0.01 0.01 0.01 0.01 0.01 0.01 0.01
0.01 0.02 0.02 0.01 0.02 0.01 0.01 0.02 0.03 0.03 0.03 0.03 0.03 0.03 0.02 0.02 0.02 0.02 0.02 0.01 0.01 0.00 0.00 0.01 0.01 0.01 0.01 0.01 0.01 0.01 0.02 0.02 0.02 0.02 0.02 0.02 0.02 0.01 0.01 0.01 0.01 0.01 0.01
0.01 0.01 0.01 0.01 0.01 0.01 0.02 0.03 0.03 0.04 0.03 0.03 0.03 0.03 0.03 0.02 0.02 0.02 0.02 0.01 0.01 0.00 0.00 0.00 0.00 0.00 0.01 0.01 0.01 0.01 0.01 0.01 0.01 0.01 0.02 0.01 0.01 0.01 0.01 0.01 0.01 0.01 0.01
0.01 0.02 0.01 0.01 0.01 0.01 0.01 0.02 0.02 0.02 0.02 0.02 0.02 0.02 0.02 0.03 0.03 0.03 0.03 0.02 0.01 0.01 0.01 0.01 0.01 0.01 0.01 0.01 0.00 0.00 0.00 0.01 0.01 0.01 0.00 0.00 0.00 0.01 0.01 0.01 0.01 0.01 0.01
0.01 0.01 0.01 0.01 0.01 0.01 0.01 0.01 0.02 0.02 0.02 0.02 0.02 0.02 0.02 0.02 0.02 0.03 0.03 0.04 0.03 0.03 0.03 0.03 0.03 0.02 0.02 0.01 0.01 0.00 0.00 0.00 0.00 0.00 0.00 0.00 0.00 0.00 0.00 0.00 0.01 0.01 0.01
0.01 0.01 0.01 0.01 0.01 0.02 0.02 0.01 0.01 0.01 0.01 0.02 0.02 0.02 0.02 0.01 0.01 0.01 0.02 0.02 0.02 0.02 0.02 0.02 0.02 0.02 0.01 0.01 0.01 0.00 0.00 0.00 0.00 0.00 0.00 0.00 0.00 0.00 0.00 0.00 0.00 0.00 0.01
0.02 0.02 0.01 0.01 0.01 0.02 0.03 0.03 0.02 0.01 0.01 0.01 0.02 0.02 0.02 0.02 0.02 0.02 0.02 0.02 0.01 0.01 0.01 0.01 0.01 0.01 0.01 0.00 0.00 0.00 0.00 0.00 0.00 0.00 0.00 0.00 0.00 0.00 0.00 0.00 0.00 0.00 0.00
0.01 0.01 0.01 0.01 0.01 0.01 0.02 0.02 0.02 0.01 0.01 0.01 0.02 0.01 0.01 0.01 0.01 0.01 0.01 0.01 0.01 0.01 0.01 0.00 0.00 0.00 0.00 0.00 0.00 0.00 0.00 0.00 0.00 0.00 0.00 0.00 0.00 0.00 0.00 0.00 0.00 0.00 0.00
0.01 0.01 0.01 0.01 0.01 0.01 0.01 0.01 0.02 0.02 0.02 0.02 0.02 0.01 0.01 0.01 0.01 0.01 0.01 0.01 0.01 0.00 0.00 0.00 0.00 0.00 0.00 0.00 0.00 0.00 0.00 0.00 0.00 0.00 0.00 0.00 0.00 0.00 0.00 0.00 0.00 0.00 0.00
0.01 0.01 0.01 0.00 0.00 0.00 0.00 0.00 0.01 0.01 0.02 0.02 0.02 0.01 0.01 0.01 0.01 0.00 0.00 0.00 0.00 0.00 0.00 0.00 0.00 0.00 0.00 0.00 0.00 0.00 0.00 0.00 0.00 0.00 0.00 0.00 0.00 0.00 0.00 0.00 0.00 0.00 0.00
MSLP
1015.25 1015.59 1015.96 1016.32 1016.64 1016.91 1017.13 1017.32 1017.50 1017.70 1017.93 1018.21 1018.52 1018.84 1019.16 1019.45 1019.69 1019.89 1020.04 1020.16 1020.27 1020.37 1020.49 1020.62 1020.76 1020.89 1021.03 1021.15 1021.26 1021.36 1021.48 1021.60 1021.74 1021.89 1022.05 1022.18 1022.28 1022.34 1022.34 1022.28 1022.17 1022.04 1021.92
1015.18 1015.49 1015.84 1016.18 1016.49 1016.76 1017.00 1017.21 1017.42 1017.65 1017.90 1018.20 1018.52 1018.85 1019.17 1019.47 1019.73 1019.94 1020.12 1020.28 1020.41 1020.54 1020.66 1020.79 1020.91 1021.03 1021.14 1021.24 1021.34 1021.46 1021.60 1021.77 1021.97 1022.20 1022.44 1022.67 1022.86 1022.99 1023.06 1023.05 1022.99 1022.88 1022.76
1015.10 1015.42 1015.75 1016.08 1016.38 1016.66 1016.91 1017.14 1017.37 1017.62 1017.90 1018.21 1018.54 1018.87 1019.21 1019.52 1019.80 1020.06 1020.28 1020.48 1020.67 1020.84 1020.99 1021.14 1021.26 1021.37 1021.46 1021.54 1021.63 1021.74 1021.88 1022.08 1022.32 1022.60 1022.90 1023.19 1023.45 1023.66 1023.78 1023.83 1023.81 1023.74 1023.64
1015.05 1015.37 1015.69 1016.01 1016.31 1016.59 1016.86 1017.11 1017.37 1017.65 1017.95 1018.28 1018.62 1018.97 1019.32 1019.65 1019.97 1020.27 1020.54 1020.81 1021.05 1021.28 1021.48 1021.66 1021.80 1021.90 1021.98 1022.04 1022.10 1022.19 1022.32 1022.51 1022.75 1023.05 1023.38 1023.71 1024.02 1024.27 1024.44 1024.54 1024.55 1024.51 1024.43
1015.05 1015.36 1015.68 1015.99 1016.29 1016.58 1016.86 1017.14 1017.44 1017.75 1018.09 1018.44 1018.81 1019.18 1019.55 1019.91 1020.26 1020.60 1020.94 1021.26 1021.56 1021.85 1022.10 1022.31 1022.47 1022.58 1022.65 1022.68 1022.71 1022.77 1022.86 1023.02 1023.24 1023.52 1023.85 1024.19 1024.51 1024.78 1024.98 1025.10 1025.15 1025.13 1025.07
1015.12 1015.43 1015.73 1016.03 1016.32 1016.62 1016.93 1017.26 1017.60 1017.96 1018.34 1018.73 1019.13 1019.53 1019.93 1020.31 1020.70 1021.07 1021.45 1021.82 1022.18 1022.51 1022.80 1023.05 1023.23 1023.34 1023.39 1023.41 1023.40 1023.41 1023.46 1023.57 1023.75 1023.99 1024.28 1024.60 1024.90 1025.17 1025.37 1025.50 1025.56 1025.56 1025.52
1015.29 1015.58 1015.86 1016.15 1016.45 1016.77 1017.11 1017.48 1017.87 1018.29 1018.73 1019.17 1019.61 1020.04 1020.45 1020.86 1021.26 1021.65 1022.06 1022.45 1022.84 1023.21 1023.53 1023.79 1023.98 1024.10 1024.14 1024.13 1024.09 1024.06 1024.06 1024.12 1024.24 1024.43 1024.67 1024.95 1025.22 1025.45 1025.64 1025.77 1025.82 1025.83 1025.79
1015.59 1015.85 1016.11 1016.39 1016.69 1017.03 1017.41 1017.83 1018.29 1018.77 1019.26 1019.75 1020.22 1020.67 1021.10 1021.51 1021.91 1022.31 1022.71 1023.11 1023.50 1023.87 1024.21 1024.47 1024.67 1024.78 1024.82 1024.79 1024.73 1024.66 1024.62 1024.63 1024.71 1024.85 1025.03 1025.25 1025.48 1025.68 1025.83 1025.93 1025.98 1025.97 1025.94
1015.98 1016.23 1016.48 1016.76 1017.07 1017.43 1017.85 1018.32 1018.84 1019.37 1019.92 1020.44 1020.94 1021.40 1021.83 1022.22 1022.61 1022.98 1023.36 1023.74 1024.12 1024.48 1024.80 1025.06 1025.25 1025.36 1025.39 1025.36 1025.29 1025.20 1025.14 1025.12 1025.15 1025.24 1025.39 1025.56 1025.73 1025.89 1026.00 1026.07 1026.10 1026.07 1026.03
1016.46 1016.71 1016.96 1017.24 1017.57 1017.97 1018.43 1018.95 1019.51 1020.09 1020.67 1021.21 1021.72 1022.18 1022.58 1022.95 1023.30 1023.64 1023.98 1024.32 1024.67 1025.00 1025.30 1025.55 1025.74 1025.84 1025.88 1025.85 1025.77 1025.69 1025.62 1025.58 1025.59 1025.65 1025.76 1025.89 1026.02 1026.13 1026.21 1026.24 1026.24 1026.19 1026.13
1016.98 1017.25 1017.52 1017.82 1018.18 1018.61 1019.11 1019.66 1020.26 1020.87 1021.46 1022.01 1022.51 1022.95 1023.32 1023.66 1023.96 1024.25 1024.55 1024.85 1025.16 1025.46 1025.74 1025.98 1026.15 1026.26 1026.30 1026.28 1026.22 1026.14 1026.08 1026.04 1026.05 1026.09 1026.17 1026.27 1026.36 1026.44 1026.48 1026.48 1026.44 1026.38 1026.29
1017.47 1017.78 1018.10 1018.44 1018.84 1019.31 1019.84 1020.42 1021.04 1021.65 1022.25 1022.79 1023.27 1023.67 1024.02 1024.31 1024.57 1024.82 1025.08 1025.34 1025.62 1025.90 1026.15 1026.38 1026.55 1026.66 1026.70 1026.70 1026.65 1026.60 1026.55 1026.52 1026.53 1026.56 1026.63 1026.70 1026.77 1026.82 1026.83 1026.80 1026.73 1026.64 1026.53
1017.90 1018.28 1018.65 1019.05 1019.50 1020.00 1020.57 1021.17 1021.79 1022.40 1022.98 1023.51 1023.95 1024.33 1024.64 1024.90 1025.13 1025.35 1025.58 1025.82 1026.08 1026.34 1026.58 1026.79 1026.96 1027.07 1027.13 1027.14 1027.11 1027.07 1027.04 1027.02 1027.03 1027.07 1027.12 1027.18 1027.22 1027.24 1027.23 1027.17 1027.08 1026.96 1026.84
1018.24 1018.70 1019.14 1019.60 1020.10 1020.65 1021.24 1021.85 1022.47 1023.07 1023.63 1024.13 1024.55 1024.89 1025.18 1025.42 1025.64 1025.85 1026.07 1026.31 1026.55 1026.80 1027.04 1027.25 1027.41 1027.53 1027.59 1027.61 1027.60 1027.57 1027.55 1027.54 1027.55 1027.58 1027.63 1027.67 1027.69 1027.69 1027.65 1027.57 1027.45 1027.32 1027.17
1018.50 1019.03 1019.55 1020.08 1020.63 1021.21 1021.82 1022.44 1023.05 1023.63 1024.17 1024.64 1025.04 1025.37 1025.64 1025.88 1026.10 1026.32 1026.54 1026.78 1027.04 1027.29 1027.53 1027.73 1027.90 1028.02 1028.08 1028.11 1028.10 1028.08 1028.06 1028.05 1028.06 1028.08 1028.11 1028.13 1028.14 1028.11 1028.04 1027.94 1027.81 1027.65 1027.49
1018.70 1019.31 1019.89 1020.47 1021.07 1021.68 1022.30 1022.91 1023.51 1024.08 1024.59 1025.04 1025.43 1025.75 1026.03 1026.28 1026.51 1026.74 1026.98 1027.24 1027.50 1027.76 1028.00 1028.21 1028.38 1028.49 1028.56 1028.59 1028.58 1028.57 1028.54 1028.53 1028.53 1028.54 1028.54 1028.54 1028.52 1028.47 1028.38 1028.26 1028.11 1027.93 1027.75
1018.92 1019.57 1020.20 1020.82 1021.44 1022.07 1022.69 1023.30 1023.89 1024.44 1024.93 1025.37 1025.74 1026.07 1026.35 1026.61 1026.86 1027.12 1027.38 1027.65 1027.92 1028.19 1028.43 1028.64 1028.81 1028.92 1028.99 1029.02 1029.02 1029.00 1028.98 1028.95 1028.94 1028.93 1028.91 1028.89 1028.84 1028.76 1028.64 1028.50 1028.33 1028.13 1027.94
1019.18 1019.86 1020.51 1021.15 1021.78 1022.41 1023.03 1023.63 1024.20 1024.73 1025.21 1025.63 1026.01 1026.33 1026.62 1026.90 1027.16 1027.43 1027.70 1027.98 1028.26 1028.53 1028.77 1028.98 1029.15 1029.27 1029.35 1029.38 1029.39 1029.37 1029.35 1029.32 1029.29 1029.26 1029.22 1029.17 1029.09 1028.98 1028.83 1028.66 1028.47 1028.26 1028.04
1019.52 1020.20 1020.85 1021.49 1022.12 1022.74 1023.34 1023.93 1024.48 1024.99 1025.46 1025.87 1026.24 1026.56 1026.86 1027.13 1027.40 1027.67 1027.95 1028.22 1028.50 1028.77 1029.01 1029.23 1029.40 1029.53 1029.62 1029.67 1029.69 1029.69 1029.67 1029.64 1029.60 1029.55 1029.49 1029.40 1029.29 1029.15 1028.97 1028.78 1028.56 1028.33 1028.10
1019.94 1020.60 1021.23 1021.86 1022.46 1023.06 1023.65 1024.21 1024.75 1025.24 1025.70 1026.10 1026.46 1026.78 1027.07 1027.34 1027.60 1027.86 1028.13 1028.39 1028.66 1028.92 1029.16 1029.38 1029.57 1029.72 1029.83 1029.90 1029.95 1029.97 1029.96 1029.93 1029.89 1029.82 1029.73 1029.61 1029.47 1029.29 1029.09 1028.86 1028.62 1028.38 1028.13
1020.40 1021.02 1021.63 1022.22 1022.80 1023.38 1023.95 1024.49 1025.01 1025.49 1025.93 1026.33 1026.68 1026.99 1027.27 1027.52 1027.77 1028.01 1028.26 1028.50 1028.76 1029.00 1029.24 1029.47 1029.67 1029.85 1029.99 1030.10 1030.17 1030.21 1030.23 1030.21 1030.16 1030.08 1029.96 1029.82 1029.64 1029.43 1029.20 1028.94 1028.69 1028.42 1028.17
1020.83 1021.42 1021.99 1022.55 1023.12 1023.67 1024.22 1024.75 1025.25 1025.73 1026.16 1026.55 1026.88 1027.18 1027.45 1027.69 1027.91 1028.13 1028.35 1028.57 1028.81 1029.05 1029.29 1029.52 1029.75 1029.95 1030.12 1030.27 1030.37 1030.44 1030.47 1030.46 1030.41 1030.31 1030.18 1030.01 1029.80 1029.56 1029.31 1029.04 1028.76 1028.49 1028.23
1021.19 1021.74 1022.28 1022.82 1023.36 1023.90 1024.44 1024.96 1025.45 1025.92 1026.35 1026.73 1027.06 1027.35 1027.60 1027.82 1028.02 1028.21 1028.41 1028.62 1028.84 1029.07 1029.31 1029.55 1029.79 1030.02 1030.23 1030.40 1030.54 1030.63 1030.67 1030.67 1030.61 1030.51 1030.36 1030.17 1029.94 1029.69 1029.42 1029.14 1028.86 1028.59 1028.33
1021.42 1021.94 1022.46 1022.99 1023.52 1024.05 1024.58 1025.09 1025.59 1026.05 1026.48 1026.85 1027.18 1027.45 1027.69 1027.89 1028.08 1028.25 1028.43 1028.62 1028.82 1029.05 1029.29 1029.54 1029.79 1030.04 1030.26 1030.46 1030.61 1030.72 1030.78 1030.78 1030.72 1030.61 1030.45 1030.25 1030.02 1029.77 1029.50 1029.23 1028.96 1028.70 1028.45
1021.52 1022.03 1022.54 1023.06 1023.58 1024.11 1024.63 1025.15 1025.64 1026.10 1026.52 1026.89 1027.21 1027.47 1027.70 1027.88 1028.05 1028.21 1028.37 1028.55 1028.74 1028.96 1029.19 1029.45 1029.70 1029.96 1030.19 1030.40 1030.56 1030.67 1030.73 1030.74 1030.68 1030.57 1030.42 1030.23 1030.01 1029.77 1029.53 1029.28 1029.04 1028.81 1028.57
1021.54 1022.03 1022.54 1023.05 1023.57 1024.10 1024.62 1025.13 1025.61 1026.06 1026.47 1026.82 1027.13 1027.38 1027.59 1027.76 1027.92 1028.06 1028.21 1028.37 1028.55 1028.76 1028.99 1029.23 1029.48 1029.73 1029.96 1030.16 1030.32 1030.44 1030.50 1030.50 1030.46 1030.36 1030.23 1030.07 1029.88 1029.69 1029.48 1029.28 1029.08 1028.88 1028.68
Thickness
5748 5745 5743 5741 5739 5737 5735 5734 5732 5730 5729 5728 5727 5725 5724 5722 5721 5721 5720 5720 5718 5717 5716 5715 5714 5713 5711 5710 5709 5707 5705 5703 5700 5702 5703 5704 5705 5705 5705 5704 5703 5702 5701
5747 5744 5742 5740 5737 5735 5734 5733 5731 5729 5728 5727 5725 5724 5722 5721 5720 5719 5718 5717 5716 5714 5713 5712 5711 5710 5708 5706 5705 5703 5702 5700 5698 5696 5697 5697 5697 5698 5698 5697 5696 5695 5694
5745 5742 5739 5737 5735 5733 5732 5731 5729 5728 5726 5724 5723 5721 5720 5719 5718 5717 5716 5714 5713 5712 5710 5709 5707 5706 5704 5702 5701 5699 5698 5697 5695 5692 5691 5690 5689 5690 5689 5688 5688 5686 5686
5743 5740 5737 5735 5733 5731 5730 5728 5726 5725 5723 5721 5720 5719 5718 5716 5715 5714 5713 5711 5709 5707 5706 5705 5704 5702 5700 5698 5696 5695 5693 5691 5689 5686 5684 5682 5681 5680 5679 5677 5676 5676 5674
5740 5737 5734 5732 5730 5728 5726 5724 5723 5721 5720 5718 5716 5715 5713 5712 5711 5710 5708 5706 5704 5702 5700 5699 5698 5696 5695 5694 5692 5690 5688 5685 5682 5679 5676 5674 5672 5671 5669 5668 5666 5665 5663
5737 5734 5731 5729 5726 5724 5722 5720 5718 5716 5714 5713 5711 5709 5708 5707 5706 5705 5703 5701 5698 5696 5693 5692 5691 5689 5688 5687 5685 5684 5682 5679 5675 5672 5668 5666 5664 5662 5661 5660 5657 5655 5652
5733 5730 5727 5724 5722 5720 5718 5716 5713 5711 5709 5707 5705 5704 5702 5701 5700 5698 5696 5694 5691 5689 5687 5685 5684 5682 5680 5678 5676 5674 5672 5670 5668 5665 5661 5658 5656 5654 5652 5650 5647 5644 5641
5728 5725 5722 5719 5717 5715 5712 5710 5708 5706 5703 5701 5699 5697 5696 5694 5692 5691 5689 5687 5684 5681 5679 5677 5675 5673 5672 5670 5667 5664 5661 5658 5657 5655 5652 5649 5647 5645 5643 5641 5637 5633 5630
5721 5718 5716 5714 5712 5709 5706 5704 5702 5699 5696 5694 5692 5690 5688 5686 5684 5683 5682 5679 5674 5671 5669 5667 5665 5664 5662 5661 5658 5654 5650 5646 5644 5642 5639 5636 5634 5633 5631 5629 5626 5622 5618
5714 5712 5710 5708 5705 5702 5699 5697 5695 5692 5689 5686 5684 5681 5680 5677 5676 5674 5673 5670 5665 5661 5658 5656 5655 5653 5652 5650 5647 5644 5639 5634 5631 5629 5626 5623 5620 5619 5617 5615 5612 5609 5605
5707 5704 5702 5700 5697 5694 5691 5689 5686 5684 5680 5678 5675 5672 5670 5667 5666 5665 5663 5660 5656 5652 5648 5645 5642 5641 5640 5637 5634 5631 5626 5622 5618 5615 5612 5608 5606 5604 5601 5599 5596 5594 5591
5700 5696 5693 5691 5688 5685 5682 5679 5677 5675 5671 5668 5665 5662 5659 5657 5656 5654 5652 5650 5647 5643 5638 5633 5630 5629 5627 5624 5620 5616 5613 5609 5605 5601 5597 5593 5590 5587 5585 5582 5580 5577 5574
5691 5687 5684 5681 5677 5675 5672 5670 5667 5665 5662 5658 5655 5651 5648 5646 5644 5642 5640 5638 5635 5631 5626 5622 5619 5617 5614 5609 5605 5602 5599 5595 5591 5587 5582 5577 5573 5571 5569 5567 5564 5562 5559
5681 5677 5674 5671 5667 5664 5661 5659 5657 5654 5651 5648 5645 5641 5637 5635 5633 5630 5628 5625 5622 5617 5613 5609 5606 5602 5599 5595 5591 5588 5584 5580 5576 5572 5567 5563 5559 5557 5554 5551 5549 5546 5544
5671 5667 5663 5660 5656 5652 5648 5644 5643 5640 5639 5637 5634 5631 5627 5623 5619 5618 5617 5613 5609 5605 5601 5597 5593 5589 5585 5580 5577 5573 5569 5566 5562 5557 5553 5550 5546 5543 5539 5536 5532 5530 5527
5662 5657 5653 5649 5645 5642 5638 5632 5628 5627 5625 5623 5621 5618 5614 5611 5608 5606 5604 5601 5597 5594 5590 5585 5579 5575 5571 5567 5563 5559 5555 5551 5547 5544 5540 5537 5533 5529 5524 5521 5517 5514 5511
5653 5648 5644 5639 5636 5632 5629 5625 5619 5613 5611 5608 5606 5605 5602 5599 5596 5593 5590 5587 5583 5581 5577 5571 5566 5561 5557 5553 5549 5545 5541 5537 5533 5531 5527 5523 5519 5515 5511 5507 5504 5500 5497
5642 5638 5634 5629 5626 5622 5618 5614 5611 5606 5601 5595 5592 5591 5589 5587 5584 5581 5578 5576 5570 5566 5562 5558 5553 5549 5544 5540 5536 5532 5528 5524 5521 5517 5513 5509 5505 5502 5498 5494 5490 5487 5484
5631 5626 5622 5619 5615 5611 5607 5603 5599 5594 5590 5585 5581 5578 5576 5573 5571 5568 5566 5563 5558 5553 5548 5544 5540 5536 5531 5527 5523 5519 5515 5511 5507 5504 5500 5496 5492 5489 5485 5481 5478 5473 5471
5621 5617 5613 5609 5605 5600 5596 5593 5588 5583 5579 5575 5572 5568 5565 5564 5560 5556 5553 5549 5545 5541 5536 5532 5527 5523 5519 5515 5510 5506 5502 5499 5495 5491 5487 5483 5480 5476 5473 5469 5467 5464 5461
5611 5607 5604 5599 5595 5591 5587 5582 5578 5574 5569 5565 5561 5558 5556 5553 5549 5545 5541 5537 5533 5529 5524 5520 5515 5511 5507 5503 5499 5495 5491 5487 5483 5479 5476 5472 5469 5466 5462 5459 5456 5454 5451
5601 5597 5593 5590 5585 5581 5577 5572 5568 5564 5560 5556 5551 5548 5545 5543 5539 5534 5530 5526 5522 5518 5513 5509 5505 5500 5496 5492 5488 5485 5481 5477 5473 5469 5466 5462 5459 5456 5453 5451 5448 5445 5443
5592 5588 5583 5580 5576 5571 5567 5563 5559 5555 5551 5547 5544 5540 5536 5533 5529 5525 5520 5516 5512 5508 5503 5499 5495 5490 5486 5482 5478 5474 5471 5467 5463 5460 5457 5454 5451 5448 5445 5443 5440 5438 5436
5583 5579 5575 5571 5567 5563 5559 5555 5551 5547 5543 5539 5536 5532 5528 5524 5520 5516 5512 5507 5503 5498 5494 5490 5486 5481 5477 5473 5470 5466 5463 5459 5456 5453 5450 5447 5444 5441 5439 5436 5434 5432 5430
5575 5571 5568 5564 5560 5556 5552 5548 5544 5540 5537 5533 5528 5524 5520 5516 5512 5508 5503 5499 5495 5491 5486 5483 5479 5475 5471 5467 5463 5460 5457 5454 5450 5447 5444 5441 5438 5435 5433 5431 5429 5426 5424
5567 5564 5560 5556 5553 5549 5545 5541 5538 5534 5530 5526 5521 5517 5513 5509 5505 5501 5496 5492 5488 5484 5480 5476 5472 5469 5465 5461 5458 5454 5451 5448 5446 5443 5439 5436 5433 5431 5429 5426 5424 5422 5420